Date String (YYYY-MM-DD hh:mm:ss) UTC,Instrument flags,Ambient pressure (hPa),Sample flow (lpm),Bypass flow (lpm),Sample temperature (°C),Ambient temperature (°C),ASC tube jacket temperature (°C),LED temperature (°C),Box temperature (°C),Sample RH (%),Span deviation,Mass concentration (μg/m³),Mass concentration (μg/m³),Mass concentration (μg/m³)
DateTimeUTC,F1_M11,P_M11,Q1_M11,Q2_M11,T1_M11,T2_M11,T3_M11,T4_M11,T5_M11,U1_M11,ZSPAN_M11,X0_M11,X2_M11,X1_M11
2022-03-23 06:00:00,,0829.2,5.00,0.00,21.9,21.2,00.0,31.0,23.6,08.5,0000.0,0002.61,0000.74,0000.46
2022-03-23 06:01:00,,0829.2,5.02,0.00,21.9,21.1,00.0,30.9,23.5,08.4,0000.0,0002.98,0000.76,0000.46
2022-03-23 06:02:00,,0829.2,5.00,0.00,21.9,21.0,00.0,30.9,23.5,08.4,0000.0,0004.04,0000.73,0000.46
2022-03-23 06:03:00,,0829.3,4.99,0.00,21.8,21.0,00.0,30.9,23.5,08.4,0000.0,0004.12,0000.76,0000.46
2022-03-23 06:04:00,,0829.2,5.01,0.00,21.8,21.0,00.0,30.9,23.5,08.4,0000.0,0004.22,0000.81,0000.46
2022-03-23 06:05:00,,0829.2,5.01,0.00,21.8,20.9,00.0,30.9,23.5,08.3,0000.0,0003.21,0000.83,0000.47
2022-03-23 06:06:00,,0829.2,5.01,0.00,21.8,20.9,00.0,30.9,23.4,08.3,0000.0,0003.08,0000.85,0000.46
2022-03-23 06:07:00,,0829.2,4.99,0.00,21.7,20.9,00.0,30.8,23.4,08.3,0000.0,0002.92,0000.81,0000.45
2022-03-23 06:08:00,,0829.2,5.01,0.00,21.7,20.9,00.0,30.8,23.4,08.4,0000.0,0002.79,0000.77,0000.44
2022-03-23 06:09:00,,0829.2,4.99,0.00,21.7,20.9,00.0,30.8,23.4,08.4,0000.0,0002.91,0000.77,0000.43
2022-03-23 06:10:00,,0829.2,4.99,0.00,21.7,20.9,00.0,30.8,23.4,08.4,0000.0,0003.00,0000.80,0000.43
2022-03-23 06:11:00,,0829.2,5.01,0.00,21.7,21.1,00.0,30.8,23.4,08.5,0000.0,0003.06,0000.81,0000.43
2022-03-23 06:12:00,,0829.2,5.00,0.00,21.8,21.9,00.0,30.8,23.7,08.4,0000.0,0002.93,0000.78,0000.43
2022-03-23 06:13:00,,0829.2,5.01,0.00,22.0,22.9,00.0,30.9,24.0,08.4,0000.0,0001.76,0000.78,0000.43
2022-03-23 06:14:00,,0829.2,4.99,0.00,22.1,23.0,00.0,30.9,24.1,08.3,0000.0,0001.48,0000.74,0000.43
2022-03-23 06:15:00,,0829.2,5.01,0.00,22.1,22.7,00.0,30.9,24.1,08.3,0000.0,0001.57,0000.70,0000.43
2022-03-23 06:16:00,,0829.1,5.00,0.00,22.1,22.4,00.0,30.9,24.0,08.4,0000.0,0002.45,0000.67,0000.42
2022-03-23 06:17:00,,0829.1,4.99,0.00,22.1,22.2,00.0,31.0,24.0,08.4,0000.0,0002.67,0000.64,0000.42
2022-03-23 06:18:00,,0829.1,5.01,0.00,22.1,22.0,00.0,31.0,23.9,08.4,0000.0,0002.72,0000.65,0000.42
2022-03-23 06:19:00,,0829.1,5.01,0.00,22.1,21.8,00.0,31.0,23.9,08.4,0000.0,0002.77,0000.67,0000.43
2022-03-23 06:20:00,,0829.1,4.98,0.00,22.1,21.7,00.0,31.0,23.9,08.3,0000.0,0002.77,0000.70,0000.44
2022-03-23 06:21:00,,0829.1,5.01,0.00,22.1,21.6,00.0,31.0,23.8,08.3,0000.0,0002.74,0000.70,0000.45
2022-03-23 06:22:00,,0829.1,5.00,0.00,22.0,21.5,00.0,31.0,23.7,08.3,0000.0,0002.78,0000.73,0000.45
2022-03-23 06:23:00,,0829.1,5.00,0.00,22.0,21.4,00.0,31.0,23.7,08.3,0000.0,0002.83,0000.76,0000.45
2022-03-23 06:24:00,,0829.1,5.00,0.00,22.0,21.3,00.0,31.0,23.7,08.2,0000.0,0002.95,0000.78,0000.45
2022-03-23 06:25:00,,0829.1,4.99,0.00,22.0,21.3,00.0,31.0,23.6,08.2,0000.0,0003.39,0000.84,0000.45
2022-03-23 06:26:00,,0829.0,5.00,0.00,21.9,21.2,00.0,31.0,23.6,08.2,0000.0,0004.70,0000.88,0000.46
2022-03-23 06:27:00,,0829.0,5.00,0.00,21.9,21.2,00.0,31.0,23.6,08.2,0000.0,0003.91,0000.86,0000.47
2022-03-23 06:28:00,,0829.1,4.99,0.00,21.9,21.1,00.0,31.0,23.6,08.2,0000.0,0003.49,0000.89,0000.47
2022-03-23 06:29:00,,0829.1,4.99,0.00,21.9,21.1,00.0,30.9,23.5,08.3,0000.0,0003.37,0000.88,0000.48
2022-03-23 06:30:00,,0829.0,5.00,0.00,21.9,21.1,00.0,30.9,23.5,08.2,0000.0,0003.31,0000.86,0000.48
2022-03-23 06:31:00,,0829.0,5.00,0.00,21.8,21.0,00.0,30.9,23.5,08.2,0000.0,0003.25,0000.86,0000.47
2022-03-23 06:32:00,,0829.1,5.01,0.00,21.8,21.0,00.0,30.9,23.5,08.3,0000.0,0003.66,0000.86,0000.47
2022-03-23 06:33:00,,0829.1,5.00,0.00,21.8,20.9,00.0,30.9,23.5,08.4,0000.0,0004.10,0000.81,0000.46
2022-03-23 06:34:00,,0829.1,5.00,0.00,21.8,20.9,00.0,30.9,23.4,08.3,0000.0,0004.08,0000.79,0000.45
2022-03-23 06:35:00,,0829.0,5.00,0.00,21.7,20.9,00.0,30.9,23.4,08.3,0000.0,0004.07,0000.79,0000.45
2022-03-23 06:36:00,,0829.1,4.99,0.00,21.8,21.5,00.0,30.9,23.6,08.3,0000.0,0003.59,0000.72,0000.45
2022-03-23 06:37:00,,0829.1,5.00,0.00,21.9,22.4,00.0,30.9,23.9,08.2,0000.0,0002.18,0000.69,0000.44
2022-03-23 06:38:00,,0829.1,5.01,0.00,22.1,23.1,00.0,31.0,24.1,08.2,0000.0,0002.25,0000.70,0000.43
2022-03-23 06:39:00,,0829.1,4.98,0.00,22.2,22.9,00.0,31.0,24.1,08.1,0000.0,0002.35,0000.70,0000.43
2022-03-23 06:40:00,,0829.1,5.00,0.00,22.2,22.6,00.0,31.0,24.1,08.3,0000.0,0002.35,0000.70,0000.42
2022-03-23 06:41:00,,0829.1,4.99,0.00,22.2,22.3,00.0,31.0,24.0,08.3,0000.0,0002.36,0000.69,0000.42
2022-03-23 06:42:00,,0829.0,5.01,0.00,22.2,22.1,00.0,31.0,23.9,08.3,0000.0,0002.36,0000.69,0000.43
2022-03-23 06:43:00,,0829.0,4.99,0.00,22.1,21.9,00.0,31.0,23.9,08.2,0000.0,0002.13,0000.70,0000.43
2022-03-23 06:44:00,,0829.0,5.01,0.00,22.1,21.7,00.0,31.0,23.9,08.3,0000.0,0001.43,0000.70,0000.43
2022-03-23 06:45:00,,0828.9,5.01,0.00,22.1,21.6,00.0,31.0,23.8,08.3,0000.0,0001.44,0000.70,0000.43
2022-03-23 06:46:00,,0828.9,4.98,0.00,22.0,21.4,00.0,31.0,23.7,08.3,0000.0,0001.32,0000.68,0000.43
2022-03-23 06:47:00,,0828.9,5.00,0.00,22.0,21.3,00.0,31.0,23.7,08.2,0000.0,0001.35,0000.69,0000.45
2022-03-23 06:48:00,,0828.8,5.00,0.00,22.0,21.2,00.0,31.0,23.7,08.2,0000.0,0001.58,0000.76,0000.45
2022-03-23 06:49:00,,0829.1,4.99,0.00,21.9,21.2,00.0,31.0,23.6,08.3,0000.0,0001.53,0000.74,0000.46
2022-03-23 06:50:00,,0828.7,5.00,0.00,21.9,21.2,00.0,31.0,23.6,07.9,0000.0,0001.37,0000.72,0000.45
2022-03-23 06:51:00,,0828.7,5.00,0.00,21.9,21.1,00.0,31.0,23.6,07.9,0000.0,0001.37,0000.73,0000.45
2022-03-23 06:52:00,,0828.7,5.00,0.00,21.9,21.1,00.0,31.0,23.5,08.0,0000.0,0001.38,0000.75,0000.45
2022-03-23 06:53:00,,0828.7,5.00,0.00,21.8,21.0,00.0,31.0,23.5,08.1,0000.0,0001.34,0000.74,0000.44
2022-03-23 06:54:00,,0829.1,5.01,0.00,21.8,21.0,00.0,30.9,23.5,08.2,0000.0,0001.33,0000.70,0000.43
2022-03-23 06:55:00,,0828.8,5.00,0.00,21.8,21.0,00.0,30.9,23.5,08.3,0000.0,0001.44,0000.72,0000.43
2022-03-23 06:56:00,,0828.7,5.00,0.00,21.8,20.9,00.0,30.9,23.5,08.3,0000.0,0001.49,0000.75,0000.44
2022-03-23 06:57:00,,0828.7,5.00,0.00,21.8,20.9,00.0,30.9,23.4,08.3,0000.0,0001.60,0000.75,0000.43
2022-03-23 06:58:00,,0828.7,5.01,0.00,21.7,20.9,00.0,30.9,23.4,08.3,0000.0,0001.64,0000.74,0000.42
2022-03-23 06:59:00,,0828.7,4.99,0.00,21.8,21.5,00.0,30.9,23.5,08.3,0000.0,0001.47,0000.67,0000.42
